Regional Weather Roundup
Issued by NWS

Home | Current Version | Previous Version | Text Only | Print | Product List | Glossary Off
Versions: 1 2 3 4 5 6 7 8 9 10 11 12 13 14 15 16 17 18 19 20 21 22 23 24 25 26 27 28 29 30 31 32 33 34 35 36 37 38 39 40 41 42 43 44 45 46 47 48 49 50

000
ASUS43 KDMX 031404
RWRIA

WEATHER ROUNDUP FOR IOWA
NATIONAL WEATHER SERVICE DES MOINES IA
  ISSUED BY NWS QUAD CITIES IA IL
800 AM CST TUE MAR 03 2015

NOTE: "FAIR" INDICATES FEW OR NO CLOUDS BELOW 12,000 FEET WITH NO
SIGNIFICANT WEATHER AND/OR OBSTRUCTIONS TO VISIBILITY.

* - THESE STATIONS ARE NOT NWS STATIONS...THUS NOT UNDER NWS
QUALITY CONTROL.  THEY ALSO DO NOT REPORT WEATHER SUCH
AS PRECIPITATION OR FOG.

IAZ001>003-012>014-020>022-031>034-043>046-031500-
   NORTHWEST IOWA

CITY           SKY/WX    TMP DP  RH WIND       PRES   REMARKS
CARROLL *      FOG       30  30 100 SW7       29.67R VSB 3/4 WCI  23
CHEROKEE *     CLOUDY    26  26 100 CALM      29.69R FOG
DENNISON *     FOG       30  30 100 SW7       29.66R VSB 1   WCI  23
LE MARS *      CLOUDY    28  28 100 CALM      29.70R FOG
ORANGE CITY *  LGT SNOW  28  25  86 W8        29.68R WCI  20
SHELDON *      LGT SNOW  25  25 100 CALM      29.67R
SIOUX CITY     CLOUDY    29  27  92 NW5       29.70R FOG     WCI  24
SPENCER        LGT SNOW  26  21  81 CALM      29.68R
STORM LAKE *   FOG       27  27 100 SW5       29.68R VSB 3/4 WCI  21
$$

IAZ055>058-069>071-079>083-090>094-031500-
   SOUTHWEST IOWA

CITY           SKY/WX    TMP DP  RH WIND       PRES   REMARKS
AUDUBON *      MIX PCPN  32  28  86 SW6       29.66S VSB 1   WCI  26
CLARINDA *     FOG       34  34 100 S9        29.68F VSB 3/4 WCI  26
COUNCIL BLFS * FOG       32  32 100 W7        29.66R VSB 3/4 WCI  26
CRESTON *      FOG       32  32 100 S14       29.65S VSB 3/4 WCI  22
HARLAN *       CLOUDY    32  32 100 SW8       29.70R FOG     WCI  25
LAMONI         MIX PCPN  32  32 100 S14       29.67F FOG     WCI  22
RED OAK *      CLOUDY    34  34 100 SW7       29.67S FOG     WCI  28
$$

IAZ047>049-059>061-072>074-084-031500-
   CENTRAL IOWA

CITY           SKY/WX    TMP DP  RH WIND       PRES   REMARKS
AMES           CLOUDY    30  28  92 S6        29.67F FOG     WCI  24
ANKENY *       FOG       30  32 100 S8        29.67S VSB 1   WCI  23
BOONE *        FOG       30  30 100 S7        29.65S VSB 3/4 WCI  23
CHARITON *     FOG       32  32 100 S14       29.67F VSB 1   WCI  22
DES MOINES     FRZ DRZL  32  30  92 S9        29.67S VSB 1   WCI  24
GRINNELL *     FOG       29  28  96 S10       29.69F VSB 1   WCI  19
KNOXVILLE *    FOG       32  30  93 S8        29.68F VSB 3/4 WCI  25
MARSHALLTOWN   CLOUDY    29  28  96 S10       29.67S FOG     WCI  20
NEWTON *       FOG       28  28 100 S10       29.69S VSB 1/2 WCI  19
PELLA *        MIX PCPN  31  31 100 S6        29.71F VSB 3/4 WCI  25
PERRY *          N/A     31  31 100 S6        29.66S FOG     WCI  25
$$

IAZ004>006-015-016-023>025-035-036-031500-
   NORTH CENTRAL IOWA

CITY           SKY/WX    TMP DP  RH WIND       PRES   REMARKS
ALGONA *       FOG       27  27 100 S8        29.68S VSB 3/4 WCI  18
CLARION *      FOG       27  27 100 S10       29.67S VSB 3/4 WCI  17
ESTHERVILLE    LGT SNOW  23  22  96 CALM      29.66S FOG
FORT DODGE *   CLOUDY    28  25  86 S7        29.68R VSB 1   WCI  21
MASON CITY     FRZ RAIN  25  23  92 S9        29.68F VSB 1   WCI  15
FOREST CITY *  MIX PCPN  27  23  86 S5        29.68R WCI  21
WEBSTER CITY * FOG       28  28 100 S7        29.65S VSB 1/2 WCI  21
IOWA FALLS *   MIX PCPN  28  27  94 S8        29.68S WCI  20
$$

IAZ007>011-017>019-026>030-037>042-050>054-066-031500-
   NORTHEAST IOWA

CITY           SKY/WX    TMP DP  RH WIND       PRES   REMARKS
CEDAR RAPIDS   LGT SNOW  29  29 100 S18       29.70F VSB 1   WCI  16
CHARLES CITY * FOG       25  25 100 SE7       29.69F VSB 1/2 WCI  17
CLINTON *      CLOUDY    28  27  93 S21       29.76F WCI  15
DECORAH *      CLOUDY    23  21  93 SE6G14    29.68F FOG     WCI  16
DUBUQUE        CLOUDY    27  26  96 S15       29.70F FOG     WCI  15
MONTICELLO *   CLOUDY    30  30 100 S13       29.71S FOG     WCI  20
OELWEIN *      CLOUDY    27  27 100 S8        29.69F WCI  18
WATERLOO       FRZ RAIN  28  28 100 S8        29.69F FOG     WCI  20
$$

IAZ064-065-067-068-078-031500-
   EAST CENTRAL IOWA

CITY           SKY/WX    TMP DP  RH WIND       PRES   REMARKS
DAVENPORT      CLOUDY    29  26  89 S21       29.74F FOG     WCI  16
IOWA CITY      FRZ RAIN  30  29  96 S13       29.75F VSB 1   WCI  20
MT. PLEASANT * CLOUDY    29  29  99 S15       29.74S FOG     WCI  18
MUSCATINE *    CLOUDY    30  28  93 S12       29.75F FOG     WCI  21
QUAD CITIES    FOG       29  26  89 S13       29.74F VSB 1   WCI  19
$$

IAZ062-063-075>077-085>089-095>099-031500-
   SOUTHEAST IOWA

CITY           SKY/WX    TMP DP  RH WIND       PRES   REMARKS
BURLINGTON     CLOUDY    30  29  96 S15       29.75S FOG     WCI  19
FAIRFIELD *    FOG       30  28  93 S13       29.72F VSB 3/4 WCI  20
FORT MADISON * CLOUDY    28  28 100 S12       29.76S FOG     WCI  18
KEOKUK *       FOG       30  30 100 S7G16     29.75R VSB 1   WCI  23
OSKALOOSA *    FOG       29  28  96 S8        29.70F VSB 1   WCI  22
CENTERVILLE *  CLOUDY    32  32 100 S9        29.70F FOG     WCI  24
OTTUMWA        FOG       30  29  96 S10       29.70F VSB 1   WCI  21
WASHINGTON *   CLOUDY    30  30 100 S15G21    29.73F FOG     WCI  19
$$

ABBREVIATIONS USED IN REMARKS
   TC - TEMPERATURES IN CELSIUS
  WCI - WIND CHILL INDEX
   HX - HEAT INDEX
  VSB - VISIBILITY
$$



USA.gov is the U.S. government's official web portal to all federal, state and local government web resources and services.